Wind_Speed
71 75 80 77 73 74 78 80 81 80 77 74 72 69 67 68 71 69 69 68 68 65 63 61 56 54 55 55 54 52 51 52 54 53 52 51 52 51
59 61 65 68 69 69 69 71 74 77 77 77 75 73 72 71 71 75 75 73 69 67 69 68 65 65 62 62 61 60 60 60 59 58 55 55 55 54
57 64 65 56 59 62 65 69 70 70 73 76 76 75 74 75 75 75 78 77 74 71 70 71 69 68 68 68 67 66 65 64 62 62 60 60 60 59
53 59 68 61 56 57 60 67 69 63 68 75 76 74 72 74 75 75 76 75 74 73 72 72 70 69 69 70 70 70 69 68 67 65 64 63 62 60
40 52 61 64 58 48 50 59 65 60 60 67 68 68 67 69 70 71 72 73 72 71 70 69 68 68 68 68 69 70 70 69 67 65 62 60 60 59
36 45 46 50 58 52 48 50 53 54 49 52 54 57 60 59 61 64 66 67 67 67 67 66 66 66 66 67 70 71 70 68 66 64 63 61 60 59
23 38 36 44 51 47 46 48 49 47 46 50 53 54 55 56 58 59 62 62 63 64 64 65 65 65 66 68 69 69 67 66 64 63 63 62 62 60
20 31 33 36 45 47 43 43 44 43 43 45 52 56 55 56 56 56 56 57 60 63 63 65 66 66 65 64 63 62 60 60 62 62 62 61 61 61
25 31 31 29 37 44 42 40 41 37 38 45 48 54 58 59 57 56 55 54 53 53 57 59 60 60 60 59 60 61 62 63 63 62 60 59 60 62
35 33 34 30 27 34 38 40 44 44 42 45 45 50 56 56 53 51 49 48 47 49 51 51 51 53 54 54 54 55 56 58 58 59 60 60 60 61
42 41 39 35 32 34 37 42 43 41 43 46 45 47 50 50 54 55 52 50 49 48 49 51 52 52 53 55 57 56 54 55 58 60 62 63 62 61
40 43 45 44 43 42 42 44 47 46 45 48 49 48 48 49 49 50 51 51 49 47 47 49 51 52 53 53 54 56 56 57 57 59 60 62 62 61
39 41 45 47 46 46 47 47 50 51 49 50 51 50 50 51 52 51 50 50 48 46 45 46 50 51 51 50 51 50 51 53 56 56 57 60 62 63
41 40 41 45 50 51 51 48 49 52 53 54 53 52 52 51 52 51 50 50 50 49 49 49 51 51 50 51 55 55 52 50 50 52 52 52 52 52
45 44 41 42 45 48 49 47 48 50 51 52 53 53 52 51 51 50 51 51 52 52 52 53 55 54 52 50 51 55 55 53 50 47 44 41 42 43
48 48 46 44 45 45 47 48 49 48 48 48 49 50 51 50 49 48 48 47 47 48 49 51 55 57 56 52 50 50 50 48 45 40 39 40 40 38
50 51 50 49 47 46 46 48 51 50 48 47 48 48 48 48 49 49 46 43 42 44 47 49 52 53 50 44 43 43 44 44 41 39 40 41 40 40
53 52 53 52 51 50 49 50 51 51 51 51 50 50 49 48 48 47 47 45 41 39 41 41 43 45 45 45 43 43 44 43 40 38 37 36 35 35
52 53 53 55 56 55 54 53 52 52 52 53 51 50 49 48 47 46 45 43 40 39 38 40 40 39 40 43 45 46 47 44 43 40 36 34 34 33
43 51 54 56 57 58 58 57 56 55 54 53 52 50 48 48 47 46 44 41 39 40 39 39 41 41 42 41 43 46 46 45 43 41 38 37 36 36
29 39 49 55 58 59 60 60 60 59 58 56 55 53 51 50 49 47 45 43 41 40 41 41 42 43 43 43 44 46 47 46 42 37 35 34 33 32
19 25 34 45 54 59 61 62 62 62 61 60 59 57 56 55 53 50 48 46 44 43 42 42 43 44 43 43 44 45 44 41 36 35 35 34 32 30
13 16 21 29 39 50 58 62 64 65 64 64 64 63 63 61 58 56 54 51 49 47 45 43 42 42 42 41 40 39 38 37 37 37 36 34 33 31
Wind_Direction
244 240 241 243 243 244 246 247 247 246 243 241 240 239 240 240 239 238 238 238 238 238 237 237 237 240 246 249 249 246 244 247 250 252 250 250 254 257
244 235 229 229 236 242 243 245 246 245 243 241 239 238 238 238 239 239 237 237 237 237 239 238 239 240 242 245 246 248 250 252 252 254 254 253 256 258
247 228 220 227 233 237 237 237 240 242 240 239 238 238 238 238 238 240 241 242 241 239 239 239 240 242 241 243 246 248 249 251 252 254 255 256 257 259
249 226 220 214 219 223 230 234 237 237 237 239 240 238 235 235 236 237 239 241 241 241 241 242 242 243 243 245 247 248 250 252 254 255 255 255 256 257
235 216 218 219 225 222 224 228 232 237 239 240 240 239 237 235 234 235 237 238 240 241 242 242 243 243 243 244 246 248 250 251 253 254 254 254 255 256
212 207 211 229 229 231 234 232 233 237 243 242 243 241 238 236 235 235 236 237 238 240 241 242 244 244 244 245 246 247 249 250 252 252 252 252 252 254
215 201 210 228 228 235 235 234 236 238 242 244 238 236 238 236 235 235 236 237 238 238 240 242 244 244 246 246 247 249 250 251 251 251 252 251 250 250
228 213 203 213 220 221 224 223 227 229 232 234 231 230 232 237 238 237 237 239 243 240 241 243 243 246 246 248 248 248 248 251 252 251 252 250 249 249
222 220 222 228 230 233 237 231 227 225 228 229 231 233 233 233 237 239 239 243 243 241 242 243 244 245 247 248 247 246 247 247 249 250 249 250 250 249
236 236 237 234 228 233 237 237 235 234 235 231 235 237 235 234 234 237 243 243 239 237 237 239 239 241 241 241 242 244 246 246 246 248 247 248 250 249
241 244 241 239 235 231 230 233 234 234 233 234 241 238 233 233 237 238 240 241 242 240 237 237 238 242 245 248 248 247 247 249 250 249 247 248 249 249
242 240 236 235 235 236 233 231 230 228 231 235 238 237 234 230 229 230 235 239 240 240 241 241 244 246 248 250 251 251 251 252 250 248 248 248 248 248
240 240 236 234 232 234 232 230 225 223 225 230 231 233 232 230 229 230 234 238 240 241 242 242 243 245 247 248 248 248 249 248 248 249 250 250 249 248
235 235 235 233 233 234 234 229 222 222 223 226 228 231 232 231 231 234 237 239 242 242 240 239 240 241 243 244 246 250 253 252 250 248 247 246 244 242
232 232 231 232 231 230 228 224 222 222 224 226 228 231 233 234 234 235 238 243 245 245 244 242 241 241 244 248 250 250 250 251 249 242 237 237 236 234
233 230 230 228 226 224 223 222 221 222 224 226 229 232 233 234 233 235 238 243 246 244 244 245 245 243 242 247 253 250 246 244 238 230 230 231 231 230
237 232 230 230 229 226 224 222 223 225 227 228 230 232 231 231 232 235 238 242 244 243 243 246 244 239 236 243 245 243 237 233 231 229 228 230 230 230
237 235 232 230 229 229 227 226 225 226 228 228 228 229 229 230 233 236 239 240 240 240 239 239 235 231 234 237 235 238 233 224 223 223 223 224 225 225
238 236 234 232 230 229 228 228 227 227 227 228 228 228 228 230 234 237 239 239 240 240 239 234 231 230 233 235 234 234 228 222 218 216 216 219 223 225
241 237 235 234 233 231 230 229 229 228 228 228 229 228 228 230 232 234 237 239 240 241 239 235 232 232 233 234 233 229 228 227 224 224 225 228 231 236
247 241 236 234 234 233 233 232 231 231 230 230 230 229 229 230 231 232 234 235 236 238 237 236 234 233 234 234 233 230 228 225 224 225 228 230 233 236
258 248 241 238 235 234 234 234 234 233 232 232 232 232 232 232 232 232 233 234 234 235 234 232 230 229 228 227 227 227 224 223 227 229 229 230 232 236
275 260 249 243 239 237 235 234 234 234 234 233 233 233 234 235 235 235 235 235 234 234 234 232 228 226 225 224 225 226 226 223 224 227 229 233 237 242
Height
5503 5512 5523 5533 5540 5546 5553 5562 5570 5579 5591 5601 5609 5617 5624 5629 5634 5640 5646 5654 5664 5671 5678 5683 5688 5692 5697 5702 5706 5711 5717 5723 5727 5730 5734 5738 5742 5745
5481 5491 5502 5511 5520 5525 5533 5540 5546 5556 5567 5579 5589 5598 5605 5611 5615 5621 5629 5638 5647 5655 5662 5668 5673 5678 5682 5687 5692 5697 5702 5708 5712 5716 5720 5724 5728 5732
5458 5470 5481 5490 5499 5506 5512 5521 5528 5536 5546 5555 5568 5578 5585 5591 5598 5604 5614 5623 5631 5639 5645 5650 5656 5662 5668 5671 5676 5681 5686 5691 5696 5701 5705 5709 5713 5718
5436 5447 5461 5472 5481 5485 5492 5501 5510 5517 5526 5535 5547 5557 5565 5572 5579 5587 5597 5606 5614 5620 5626 5632 5638 5644 5649 5654 5659 5664 5670 5675 5680 5685 5689 5694 5698 5701
5419 5428 5443 5453 5460 5466 5474 5482 5492 5502 5510 5519 5529 5538 5546 5553 5562 5570 5579 5588 5596 5602 5608 5614 5619 5625 5631 5637 5642 5648 5653 5659 5663 5667 5672 5677 5682 5685
5412 5421 5431 5440 5448 5455 5462 5469 5477 5488 5497 5506 5515 5522 5531 5539 5546 5554 5562 5570 5578 5584 5590 5597 5602 5607 5614 5620 5626 5631 5636 5640 5645 5650 5655 5661 5666 5670
5406 5414 5424 5431 5437 5442 5449 5456 5464 5474 5482 5491 5500 5508 5515 5523 5532 5540 5546 5552 5559 5565 5572 5580 5585 5592 5596 5601 5607 5613 5618 5623 5628 5634 5639 5644 5649 5654
5399 5405 5413 5416 5422 5431 5439 5446 5455 5462 5469 5477 5486 5494 5502 5510 5517 5524 5531 5537 5543 5550 5557 5561 5567 5572 5578 5585 5591 5595 5601 5607 5613 5617 5622 5627 5632 5637
5391 5394 5399 5404 5412 5421 5429 5437 5444 5449 5457 5466 5473 5480 5489 5497 5505 5512 5517 5523 5529 5534 5539 5544 5550 5557 5563 5569 5574 5578 5584 5590 5595 5600 5606 5611 5616 5621
5383 5387 5391 5398 5404 5410 5418 5425 5431 5439 5446 5454 5462 5468 5474 5481 5489 5496 5501 5507 5513 5519 5525 5530 5536 5541 5548 5553 5557 5562 5569 5574 5578 5584 5589 5594 5599 5605
5375 5378 5383 5388 5394 5399 5407 5415 5421 5427 5434 5442 5448 5454 5460 5467 5475 5482 5488 5494 5499 5505 5512 5517 5522 5528 5533 5536 5541 5549 5554 5557 5563 5569 5573 5579 5584 5589
5363 5367 5373 5379 5384 5389 5395 5402 5409 5415 5422 5430 5436 5443 5448 5455 5462 5469 5475 5482 5487 5493 5498 5504 5508 5513 5517 5522 5527 5534 5538 5542 5549 5553 5558 5563 5569 5574
5351 5354 5358 5365 5372 5377 5383 5388 5395 5403 5410 5418 5424 5431 5437 5443 5449 5456 5462 5468 5474 5480 5485 5489 5494 5498 5503 5508 5513 5519 5523 5528 5533 5538 5543 5548 5553 5559
5339 5343 5346 5352 5358 5364 5370 5376 5383 5391 5398 5405 5412 5418 5425 5431 5437 5443 5449 5455 5461 5466 5471 5477 5481 5486 5491 5496 5501 5505 5510 5515 5519 5524 5530 5535 5539 5544
5326 5330 5335 5340 5345 5351 5357 5364 5371 5378 5385 5392 5399 5406 5412 5418 5424 5431 5437 5442 5447 5452 5458 5463 5468 5473 5478 5483 5487 5492 5496 5502 5507 5513 5518 5522 5527 5532
5311 5317 5323 5328 5334 5339 5345 5352 5359 5366 5373 5380 5387 5393 5399 5406 5412 5419 5424 5429 5433 5438 5442 5447 5452 5458 5464 5470 5474 5478 5484 5489 5496 5502 5508 5513 5518 5522
5294 5301 5308 5314 5320 5326 5333 5340 5347 5354 5361 5369 5375 5381 5387 5393 5400 5406 5411 5416 5420 5424 5428 5432 5437 5443 5451 5458 5463 5467 5473 5479 5485 5492 5498 5503 5508 5513
5276 5284 5292 5299 5305 5312 5319 5327 5334 5341 5348 5356 5363 5369 5375 5380 5387 5393 5398 5404 5408 5412 5417 5421 5426 5432 5439 5446 5452 5457 5463 5469 5476 5483 5488 5493 5498 5503
5260 5268 5275 5282 5290 5298 5305 5313 5321 5328 5335 5342 5349 5356 5362 5368 5375 5381 5386 5391 5397 5402 5406 5411 5417 5422 5428 5435 5441 5447 5453 5460 5467 5473 5479 5485 5489 5495
5243 5250 5258 5266 5274 5282 5290 5298 5306 5314 5321 5329 5336 5343 5349 5356 5363 5370 5375 5380 5385 5391 5396 5401 5407 5413 5419 5425 5430 5437 5444 5451 5458 5464 5470 5475 5479 5483
5231 5235 5241 5249 5257 5266 5274 5282 5291 5299 5307 5314 5322 5329 5336 5343 5351 5359 5364 5370 5375 5380 5386 5391 5397 5403 5408 5414 5420 5427 5435 5441 5447 5453 5459 5465 5470 5474
5222 5224 5228 5233 5240 5248 5257 5266 5275 5283 5291 5299 5307 5315 5322 5330 5338 5345 5352 5358 5364 5370 5375 5382 5388 5393 5399 5405 5411 5417 5424 5432 5437 5443 5449 5455 5460 5464
5216 5217 5219 5222 5226 5233 5240 5249 5258 5266 5275 5283 5291 5299 5307 5315 5323 5331 5338 5345 5352 5358 5364 5370 5377 5384 5389 5395 5401 5408 5414 5421 5428 5434 5440 5445 5450 5454